Des Moines, IA

12:50 PM CDT on July 25, 2017 (GMT -0500)
Des Moines International

Weather History for KDSM - January, 2012

Change the Weather History Date:

Thursday, January 19, 2012

  Actual Average Record
Temperature  
Mean Temperature 11 °F 22 °F  
Max Temperature 20 °F 31 °F 57 °F (1914)
Min Temperature 2 °F 14 °F -26 °F (1892)
Degree Days  
Heating Degree Days 54 43  
Month to date heating degree days 671 810  
Since 1 July heating degree days 2733 3277  
Cooling Degree Days 0 0  
Month to date cooling degree days 0 0  
Year to date cooling degree days 0 0  
Moisture  
Dew Point -6 °F    
Average Humidity 58    
Maximum Humidity 69    
Minimum Humidity 46    
Precipitation  
Precipitation T in 0.03 in 0.50 in (1935)
Month to date precipitation 0.14 0.60  
Year to date precipitation 0.14 0.60  
Snow  
Snow 0.10 in 0.20 in 4.10 in (1938)
Month to date snowfall 3.5 5.0  
Since 1 July snowfall 9.2 16.9  
Snow Depth 2.00 in    
Sea Level Pressure  
Sea Level Pressure 30.16 in    
Wind  
Wind Speed 10 mph (NNE)    
Max Wind Speed 22 mph    
Max Gust Speed 26 mph    
Visibility 10 miles    
Events Snow    
T = Trace of Precipitation, MM = Missing Value Source: NWS Daily Summary

Daily Weather History Graph

Daily Weather History Graph

Search for Another Location

Airport or City:

Trip Planner

Search our weather history database for the weather conditions in past years. The results will help you decide how hot, cold, wet, or windy it might be!

Date:

Astronomy

Jan. 19, 2012 Rise Set
Actual Time 7:37 AM CST 5:13 PM CST
Civil Twilight 7:06 AM CST 5:44 PM CST
Nautical Twilight 6:32 AM CST 6:18 PM CST
Astronomical Twilight 5:59 AM CST 6:51 PM CST
Moon 4:14 AM CST (1/19) 1:45 PM CST (1/19)
Length of Visible Light 10h 37m
Length of Day
9h 36m
Waning Crescent, 15% of the Moon is Illuminated
Jan 19
Waning Crescent
Jan 23
New
Jan 30
First Quarter
Feb 7
Full
Feb 14
Last Quarter

Hourly Weather History & Observations

Time (CST) Temp. Windchill Dew Point Humidity Pressure Visibility Wind Dir Wind Speed Gust Speed Precip Events Conditions
12:54 AM 12.9 °F -3.4 °F 3.0 °F 65% 29.98 in 9.0 mi North 16.1 mph 23.0 mph 0.00 in   Overcast
1:54 AM 10.9 °F -4.7 °F -0.0 °F 61% 30.00 in 10.0 mi North 13.8 mph - N/A   Overcast
2:54 AM 10.0 °F -4.5 °F -0.9 °F 61% 30.03 in 10.0 mi North 11.5 mph - N/A   Overcast
3:54 AM 8.1 °F -8.4 °F -5.1 °F 55% 30.04 in 9.0 mi North 13.8 mph - 0.00 in Snow Light Snow
4:54 AM 6.1 °F -9.5 °F -2.9 °F 67% 30.07 in 6.0 mi North 11.5 mph - 0.00 in Snow Light Snow
5:54 AM 6.1 °F -9.5 °F -7.1 °F 55% 30.10 in 10.0 mi North 11.5 mph - 0.00 in   Overcast
6:54 AM 3.9 °F -13.7 °F -8.0 °F 58% 30.15 in 10.0 mi North 13.8 mph 21.9 mph N/A   Overcast
7:54 AM 3.0 °F -15.5 °F -8.0 °F 60% 30.18 in 10.0 mi North 15.0 mph - N/A   Overcast
8:54 AM 1.9 °F -16.2 °F -9.9 °F 58% 30.19 in 9.0 mi North 13.8 mph 19.6 mph 0.00 in Snow Light Snow
9:54 AM 3.0 °F -12.5 °F -9.9 °F 55% 30.21 in 10.0 mi North 10.4 mph - 0.00 in   Overcast
10:54 AM 3.9 °F -11.3 °F -9.9 °F 53% 30.22 in 10.0 mi North 10.4 mph - N/A   Scattered Clouds
12:54 PM 7.0 °F -6.6 °F -9.0 °F 48% 30.22 in 10.0 mi North 9.2 mph - N/A   Mostly Cloudy
1:54 PM 9.0 °F -5.1 °F -7.1 °F 48% 30.22 in 10.0 mi NE 10.4 mph - N/A   Mostly Cloudy
2:54 PM 10.0 °F -0.9 °F -7.1 °F 46% 30.21 in 10.0 mi North 6.9 mph - N/A   Mostly Cloudy
3:54 PM 10.0 °F -0.9 °F -7.1 °F 46% 30.21 in 10.0 mi NNE 6.9 mph - N/A   Mostly Cloudy
4:54 PM 8.1 °F -2.0 °F -7.1 °F 50% 30.22 in 10.0 mi NE 5.8 mph - N/A   Partly Cloudy
5:54 PM 8.1 °F 1.4 °F -8.0 °F 48% 30.21 in 10.0 mi East 3.5 mph - N/A   Partly Cloudy
6:54 PM 7.0 °F -3.3 °F -7.1 °F 53% 30.22 in 10.0 mi East 5.8 mph - N/A   Clear
7:54 PM 6.8 °F -2.0 °F -7.6 °F 52% 30.17 in 10.0 mi East 4.6 mph - N/A   Clear
8:54 PM 6.1 °F -4.3 °F -7.1 °F 55% 30.23 in 10.0 mi ESE 5.8 mph - N/A   Partly Cloudy
9:54 PM 5.0 °F -5.6 °F -7.1 °F 58% 30.21 in 10.0 mi ESE 5.8 mph - N/A   Mostly Cloudy
10:54 PM 5.0 °F -4.1 °F -7.1 °F 58% 30.21 in 10.0 mi East 4.6 mph - N/A   Partly Cloudy
11:54 PM 5.0 °F -4.1 °F -6.0 °F 61% 30.22 in 10.0 mi SE 4.6 mph - N/A   Partly Cloudy